Weather History for K4M9 - December, 2012

Change the Weather History Date:

Monday, December 31, 2012

  Actual Average (KJBR) Record (KJBR)
Temperature  
Mean Temperature 36 °F 37 °F  
Max Temperature 39 °F 46 °F 79 °F (1951)
Min Temperature 32 °F 29 °F 2 °F (1983)
Degree Days  
Heating Degree Days 30 28  
Month to date heating degree days 791  
Since 1 July heating degree days 1442  
Cooling Degree Days 0 0  
Month to date cooling degree days 0  
Year to date cooling degree days 1827  
Moisture  
Dew Point 33 °F    
Average Humidity 92    
Maximum Humidity 100    
Minimum Humidity 75    
Precipitation  
Precipitation 0.25 in 0.11 in 4.16 in (1918)
Month to date precipitation 4.77  
Year to date precipitation 48.10  
Snow  
Snow 0.00 in 0.00 in 4.00 in (1917)
Month to date snowfall 0.6  
Since 1 July snowfall 0.6  
Snow Depth -    
Sea Level Pressure  
Sea Level Pressure 30.19 in    
Wind  
Wind Speed 5 mph (East)    
Max Wind Speed 9 mph    
Max Gust Speed -    
Visibility 5 miles    
Events Rain    
T = Trace of Precipitation, MM = Missing Value Source: NWS Daily Summary

Daily Weather History Graph

Daily Weather History Graph

Search for Another Location

Airport or City:

Trip Planner

Search our weather history database for the weather conditions in past years. The results will help you decide how hot, cold, wet, or windy it might be!

Date:

Astronomy

Dec. 31, 2012 Rise Set
Actual Time 7:14 AM CST 4:57 PM CST
Civil Twilight 6:45 AM CST 5:26 PM CST
Nautical Twilight 6:13 AM CST 5:58 PM CST
Astronomical Twilight 5:42 AM CST 6:29 PM CST
Moon 8:22 PM CST (12/31) 9:01 AM CST (12/31)
Length of Visible Light 10h 40m
Length of Day
9h 43m
Waning Gibbous, 90% of the Moon is Illuminated
Dec 31
Waning Gibbous
Jan 4
Last Quarter
Jan 11
New
Jan 18
First Quarter
Jan 26
Full

Hourly Weather History & Observations

Time (CST) Temp. Windchill Dew Point Humidity Pressure Visibility Wind Dir Wind Speed Gust Speed Precip Events Conditions
12:15 AM 32.0 °F 27.5 °F 28.4 °F 87% 30.31 in 10.0 mi South 4.6 mph - N/A   Clear
12:35 AM 32.0 °F 26.4 °F 28.4 °F 87% 30.31 in 10.0 mi South 5.8 mph - N/A   Clear
12:55 AM 32.0 °F 27.5 °F 28.4 °F 87% 30.30 in 10.0 mi SSE 4.6 mph - N/A   Clear
1:15 AM 32.0 °F 27.5 °F 28.4 °F 87% 30.30 in 10.0 mi South 4.6 mph - N/A   Clear
1:35 AM 32.0 °F 27.5 °F 28.4 °F 87% 30.31 in 10.0 mi SSE 4.6 mph - N/A   Scattered Clouds
1:55 AM 32.0 °F 28.7 °F 28.4 °F 87% 30.31 in 9.0 mi SSE 3.5 mph - N/A   Overcast
2:15 AM 32.0 °F - 28.4 °F 87% 30.31 in 9.0 mi Calm Calm - N/A   Overcast
2:35 AM 32.0 °F - 28.4 °F 87% 30.31 in 10.0 mi Calm Calm - N/A   Overcast
2:55 AM 32.0 °F - 30.2 °F 93% 30.32 in 7.0 mi Calm Calm - N/A   Overcast
3:15 AM 32.0 °F 25.6 °F 30.2 °F 93% 30.32 in 8.0 mi South 6.9 mph - N/A   Overcast
3:35 AM 32.0 °F 26.4 °F 30.2 °F 93% 30.32 in 8.0 mi SW 5.8 mph - N/A   Overcast
3:55 AM 33.8 °F 27.7 °F 28.4 °F 81% 30.32 in 8.0 mi SW 6.9 mph - N/A   Overcast
4:15 AM 33.8 °F 27.7 °F 28.4 °F 81% 30.31 in 9.0 mi SW 6.9 mph - N/A   Overcast
4:55 AM 33.8 °F 26.4 °F 30.2 °F 87% 30.29 in 5.0 mi South 9.2 mph - N/A Rain Light Rain
5:15 AM 33.8 °F 28.6 °F 30.2 °F 87% 30.28 in 7.0 mi South 5.8 mph - N/A Rain Light Rain
5:35 AM 33.8 °F 28.6 °F 30.2 °F 87% 30.27 in 10.0 mi SSE 5.8 mph - N/A   Overcast
5:55 AM 33.8 °F 27.7 °F 30.2 °F 87% 30.26 in 8.0 mi SSE 6.9 mph - N/A   Overcast
6:15 AM 33.8 °F 26.4 °F 30.2 °F 87% 30.26 in 7.0 mi South 9.2 mph - N/A Rain Light Rain
6:35 AM 33.8 °F 27.0 °F 30.2 °F 87% 30.25 in 8.0 mi South 8.1 mph - N/A   Overcast
6:55 AM 33.8 °F 26.4 °F 30.2 °F 87% 30.25 in 8.0 mi South 9.2 mph - N/A Rain Light Rain
7:15 AM 33.8 °F 28.6 °F 30.2 °F 87% 30.25 in 8.0 mi South 5.8 mph - N/A   Mostly Cloudy
7:35 AM 33.8 °F 27.7 °F 30.2 °F 87% 30.26 in 7.0 mi SSW 6.9 mph - N/A   Partly Cloudy
7:55 AM 33.8 °F 29.6 °F 30.2 °F 87% 30.26 in 8.0 mi WSW 4.6 mph - N/A   Partly Cloudy
8:35 AM 33.8 °F - 32.0 °F 93% 30.24 in 6.0 mi Calm Calm - N/A   Partly Cloudy
8:55 AM 33.8 °F 29.6 °F 32.0 °F 93% 30.25 in 6.0 mi WNW 4.6 mph - N/A   Partly Cloudy
9:15 AM 33.8 °F 30.8 °F 32.0 °F 93% 30.24 in 5.0 mi NW 3.5 mph - N/A   Mostly Cloudy
9:35 AM 33.8 °F - 32.0 °F 93% 30.24 in 7.0 mi Calm Calm - N/A   Overcast
9:55 AM 35.6 °F - 32.0 °F 87% 30.24 in 7.0 mi Calm Calm - N/A   Overcast
10:15 AM 35.6 °F 32.8 °F 32.0 °F 87% 30.25 in 8.0 mi SSW 3.5 mph - N/A   Scattered Clouds
10:35 AM 37.4 °F 34.9 °F 32.0 °F 81% 30.24 in 7.0 mi South 3.5 mph - N/A   Clear
10:55 AM 37.4 °F - 32.0 °F 81% 30.24 in 9.0 mi Calm Calm - N/A   Partly Cloudy
11:15 AM 37.4 °F - 32.0 °F 81% 30.22 in 8.0 mi Calm Calm - N/A   Partly Cloudy
11:35 AM 37.4 °F - 32.0 °F 81% 30.20 in 8.0 mi Calm Calm - N/A Rain Light Rain
11:55 AM 37.4 °F - 32.0 °F 81% 30.19 in 8.0 mi Calm Calm - N/A   Clear
12:15 PM 39.2 °F - 32.0 °F 75% 30.17 in 9.0 mi Calm Calm - N/A   Clear
12:55 PM 39.2 °F 33.6 °F 32.0 °F 75% 30.16 in 6.0 mi WSW 8.1 mph - N/A Rain Light Rain
1:15 PM 37.4 °F 31.4 °F 32.0 °F 81% 30.18 in 2.5 mi West 8.1 mph - N/A Rain Light Rain
1:35 PM 37.4 °F 34.9 °F 32.0 °F 81% 30.15 in 2.5 mi West 3.5 mph - 0.02 in Rain Light Rain
1:55 PM 37.4 °F 34.9 °F 32.0 °F 81% 30.14 in 2.5 mi West 3.5 mph - 0.04 in Rain Light Rain
2:15 PM 35.6 °F - 33.8 °F 93% 30.13 in 2.5 mi Calm Calm - 0.01 in Rain Light Rain
2:35 PM 35.6 °F - 33.8 °F 93% 30.13 in 3.0 mi Calm Calm - 0.01 in Rain Light Rain
2:55 PM 35.6 °F 32.8 °F 33.8 °F 93% 30.12 in 1.2 mi NE 3.5 mph - 0.03 in Rain Light Rain
3:15 PM 35.6 °F 30.7 °F 35.6 °F 100% 30.12 in 1.5 mi NE 5.8 mph - N/A Rain Light Rain
3:35 PM 35.6 °F 30.7 °F 35.6 °F 100% 30.10 in 2.0 mi NE 5.8 mph - 0.01 in Rain Light Rain
3:55 PM 35.6 °F 29.9 °F 35.6 °F 100% 30.11 in 2.0 mi NNE 6.9 mph - 0.01 in Rain Light Rain
4:15 PM 35.6 °F 29.9 °F 35.6 °F 100% 30.12 in 2.5 mi North 6.9 mph - N/A   Overcast
4:35 PM 35.6 °F 29.2 °F 35.6 °F 100% 30.11 in 1.2 mi NNE 8.1 mph - 0.01 in Rain Light Rain
4:55 PM 35.6 °F 29.2 °F 35.6 °F 100% 30.10 in 0.8 mi NNE 8.1 mph - 0.05 in Rain Rain
5:15 PM 35.6 °F 30.7 °F 35.6 °F 100% 30.10 in 1.8 mi NE 5.8 mph - N/A Rain Light Rain
5:35 PM 35.6 °F 29.2 °F 35.6 °F 100% 30.09 in 1.8 mi NE 8.1 mph - 0.02 in Rain Light Rain
5:55 PM 35.6 °F 29.9 °F 35.6 °F 100% 30.10 in 1.5 mi ENE 6.9 mph - 0.03 in Rain Light Rain
6:15 PM 35.6 °F 32.8 °F 35.6 °F 100% 30.12 in 1.2 mi NNE 3.5 mph - 0.04 in Rain Light Rain
6:35 PM 35.6 °F 28.6 °F 35.6 °F 100% 30.10 in 1.2 mi ESE 9.2 mph - 0.09 in Rain Rain
7:15 PM 35.6 °F 28.6 °F 35.6 °F 100% 30.08 in 3.0 mi East 9.2 mph - N/A   Overcast
7:35 PM 35.6 °F 29.2 °F 35.6 °F 100% 30.08 in 3.0 mi East 8.1 mph - N/A   Overcast
7:55 PM 35.6 °F 29.9 °F 35.6 °F 100% 30.07 in 3.0 mi East 6.9 mph - N/A   Overcast
8:15 PM 35.6 °F 31.7 °F 35.6 °F 100% 30.06 in 3.0 mi ENE 4.6 mph - N/A   Overcast
8:35 PM 35.6 °F 31.7 °F 35.6 °F 100% 30.07 in 5.0 mi NE 4.6 mph - N/A   Overcast
8:55 PM 35.6 °F 31.7 °F 35.6 °F 100% 30.06 in 4.0 mi ENE 4.6 mph - N/A   Overcast
9:15 PM 35.6 °F 31.7 °F 35.6 °F 100% 30.06 in 4.0 mi ENE 4.6 mph - N/A   Overcast
9:35 PM 35.6 °F 31.7 °F 35.6 °F 100% 30.07 in 2.0 mi NNE 4.6 mph - N/A   Overcast
9:55 PM 35.6 °F 31.7 °F 35.6 °F 100% 30.07 in 1.2 mi NNE 4.6 mph - N/A   Overcast
10:15 PM 35.6 °F 30.7 °F 35.6 °F 100% 30.07 in 1.0 mi NNE 5.8 mph - N/A   Overcast
10:35 PM 35.6 °F 31.7 °F 35.6 °F 100% 30.07 in 1.0 mi NE 4.6 mph - N/A   Overcast
10:55 PM 35.6 °F 31.7 °F 35.6 °F 100% 30.07 in 1.2 mi NNE 4.6 mph - N/A   Overcast
11:15 PM 35.6 °F 31.7 °F 35.6 °F 100% 30.06 in 1.0 mi NNE 4.6 mph - N/A   Overcast
11:35 PM 35.6 °F 31.7 °F 35.6 °F 100% 30.06 in 1.2 mi NNE 4.6 mph - N/A   Overcast
11:55 PM 35.6 °F 31.7 °F 35.6 °F 100% 30.06 in 1.2 mi NNE 4.6 mph - N/A   Overcast